Terminal Aerodrome Forecast
Issued by NWS Bismarck, ND

Home | Current Version | Previous Version | Graphics & Text | Print | Product List | Glossary On
Versions: 1 2 3 4 5 6 7 8 9 10 11 12 13 14 15 16 17 18 19
000
FTUS43 KBIS 291132
TAFBIS
TAF
KBIS 291132Z 2912/3012 18004KT 6SM FU BR SCT040
      TEMPO 2912/2914 3SM FU BR BKN040
     FM291600 19008KT 6SM FU SCT250
     FM292000 19012G18KT P6SM FEW250
     FM300300 14007KT P6SM SCT250=

USA.gov is the U.S. government's official web portal to all federal, state and local government web resources and services.